Location: Fort Wayne
(41.1310°N, 85.1290°W)
Time: 08:40:34
(UTC-04:00)

Meteor 2-9 Rocket - Visible Passes

Search period start: 20 August 2014 00:00
Search period end: 30 August 2014 00:00
Orbit: 791 x 896 km, 81.3° (Epoch: 19 August)

Date Brightness Start Highest point End Pass type
(mag) Time Alt. Az. Time Alt. Az. Time Alt. Az.
20 Aug 4.3 23:33:36 65° NNE 23:33:36 65° NNE 23:38:05 10° N visible
21 Aug 6.7 01:15:26 11° WNW 01:16:17 11° WNW 01:18:01 10° NW visible
21 Aug 4.2 23:19:26 66° NE 23:19:26 66° NE 23:24:04 10° NNE visible
22 Aug 6.6 01:01:17 13° WNW 01:02:11 13° WNW 01:04:39 10° NW visible
22 Aug 4.1 23:05:14 63° ENE 23:05:14 63° ENE 23:10:03 10° NNE visible
23 Aug 6.5 00:47:05 14° WNW 00:48:06 15° WNW 00:51:05 10° NNW visible
23 Aug 4.1 22:51:00 58° E 22:51:00 58° E 22:56:01 10° NNE visible
24 Aug 6.3 00:32:50 16° W 00:34:00 17° WNW 00:37:25 10° NNW visible
24 Aug 4.2 22:36:42 51° E 22:36:50 51° E 22:41:57 10° NNE visible
25 Aug 6.2 00:18:32 18° W 00:19:56 19° WNW 00:23:41 10° NNW visible
25 Aug 4.3 22:22:21 43° ESE 22:22:51 44° E 22:27:53 10° NNE visible
26 Aug 6.1 00:04:11 19° W 00:05:51 22° WNW 00:09:55 10° NNW visible
26 Aug 4.5 22:07:55 36° ESE 22:08:54 39° E 22:13:48 10° NNE visible
26 Aug 6.0 23:49:44 20° WSW 23:51:47 24° WNW 23:56:06 10° NNW visible
27 Aug 4.7 21:53:23 28° SE 21:54:56 34° E 21:59:42 10° NNE visible
27 Aug 5.8 23:35:12 19° WSW 23:37:43 28° WNW 23:42:16 10° NNW visible
28 Aug 4.9 21:38:43 22° SE 21:40:59 30° E 21:45:34 10° NNE visible
28 Aug 5.7 23:20:31 18° WSW 23:23:40 31° WNW 23:28:24 10° N visible
29 Aug 5.0 21:23:51 15° SE 21:27:03 26° E 21:31:25 10° NNE visible
29 Aug 5.5 23:05:39 14° SW 23:09:37 35° WNW 23:14:31 10° N visible
